Regional Weather Roundup
Issued by NWS Little Rock, AR

Home | Current Version | Previous Version | Graphics & Text | Print | Product List | Glossary On
Versions: 1 2 3 4 5 6 7 8 9 10 11 12 13 14 15 16 17 18 19 20 21 22 23 24 25 26 27 28 29 30 31 32 33 34 35 36 37 38 39 40 41 42 43 44 45 46 47 48 49 50
000
ASUS44 KLZK 250605
RWRLZK

WEATHER ROUNDUP FOR ARKANSAS
NATIONAL WEATHER SERVICE LITTLE ROCK AR
100 AM CDT FRI JUL 25 2014

NOTE: "FAIR" INDICATES FEW OR NO CLOUDS BELOW 12,000 FEET WITH NO
SIGNIFICANT WEATHER AND/OR OBSTRUCTIONS TO VISIBILITY.

ARZ001-003-010-029-250700-
NORTHWEST ARKANSAS

CITY           SKY/WX    TMP DP  RH WIND       PRES   REMARKS
FAYETTEVILLE   CLEAR     66  66 100 CALM      30.05S FOG
6HR MIN TEMP:  67; 6HR MAX TEMP:  83;

FORT SMITH     CLEAR     76  70  82 E3        30.02S
6HR MIN TEMP:  76; 6HR MAX TEMP:  85;

HARRISON       CLEAR     67  62  84 E5        30.07F
6HR MIN TEMP:  66; 6HR MAX TEMP:  80;

BENTONVILLE    CLEAR     72  64  78 SE3       30.06R
6HR MIN TEMP:  72; 6HR MAX TEMP:  84;

ROGERS         CLEAR     72  65  78 SE7       30.06S
6HR MIN TEMP:  72; 6HR MAX TEMP:  85;

SILOAM SPGS    CLEAR     68  63  83 CALM      30.06S
6HR MIN TEMP:  68; 6HR MAX TEMP:  82;

HIGHFILL       CLEAR     69  67  93 CALM      30.04F
6HR MIN TEMP:  69; 6HR MAX TEMP:  84;

$$

ARZ004-005-016-250700-
NORTH CENTRAL ARKANSAS

CITY           SKY/WX    TMP DP  RH WIND       PRES   REMARKS
BATESVILLE     CLEAR     63  63 100 CALM      30.05S
6HR MIN TEMP:  63; 6HR MAX TEMP:  82;

FLIPPIN        CLEAR     63  61  94 S3        30.04F
6HR MIN TEMP:  63; 6HR MAX TEMP:  81;

MTN HOME       CLEAR     66  59  78 SE5       30.03F
6HR MIN TEMP:  66; 6HR MAX TEMP:  80;

$$

ARZ040-041-250700-
WEST CENTRAL ARKANSAS

CITY           SKY/WX    TMP DP  RH WIND       PRES   REMARKS
MENA           CLOUDY    75  73  94 CALM      30.07R
MOUNT IDA      CLOUDY    74  72  93 CALM      30.04R FOG
6HR MIN TEMP:  72; 6HR MAX TEMP:  84;

$$

ARZ009-017-025-026-028-250700-
NORTHEAST ARKANSAS

CITY           SKY/WX    TMP DP  RH WIND       PRES   REMARKS
CORNING        FAIR      64  64 100 CALM      30.03F
JONESBORO      CLEAR     63  60  90 CALM      30.04S
6HR MIN TEMP:  63; 6HR MAX TEMP:  77;

NEWPORT        CLEAR     68  63  84 CALM      30.05S
6HR MIN TEMP:  67; 6HR MAX TEMP:  79;

WALNUT RIDGE   CLEAR     66  61  82 CALM      30.04S
6HR MIN TEMP:  66; 6HR MAX TEMP:  79;

BLYTHEVILLE    CLEAR     65  64  97 CALM      30.04F
6HR MIN TEMP:  65; 6HR MAX TEMP:  78;

$$

ARZ022-023-033-042-044-250700-
CENTRAL ARKANSAS

CITY           SKY/WX    TMP DP  RH WIND       PRES   REMARKS
LITTLE ROCK    CLEAR     70  63  78 CALM      30.05F
6HR MIN TEMP:  69; 6HR MAX TEMP:  82;

N LITTLE ROCK    N/A     70  65  82 SE6       30.05F
6HR MIN TEMP:  70; 6HR MAX TEMP:  81;

SEARCY         CLEAR     65  63  93 CALM      30.06S
6HR MIN TEMP:  64; 6HR MAX TEMP:  82;

HOT SPRINGS    CLOUDY    74  70  87 E6        30.06R
6HR MIN TEMP:  74; 6HR MAX TEMP:  84;

RUSSELLVILLE   CLEAR     73  68  84 CALM      30.04S
6HR MIN TEMP:  73; 6HR MAX TEMP:  81;

CLINTON        FAIR      66  66 100 CALM      30.06F
$$

ARZ036-250700-
EAST ARKANSAS

CITY           SKY/WX    TMP DP  RH WIND       PRES   REMARKS
WEST MEMPHIS   CLEAR     65  64  97 CALM      30.03S
6HR MIN TEMP:  65; 6HR MAX TEMP:  79;

$$

ARZ050-053-066-070-073-250700-
SOUTHWEST ARKANSAS

CITY           SKY/WX    TMP DP  RH WIND       PRES   REMARKS
ARKADELPHIA    CLOUDY    74  73  96 CALM      30.05R
6HR MIN TEMP:  74; 6HR MAX TEMP:  84;

CAMDEN         CLEAR     72  68  88 CALM      30.04S
TEXARKANA      CLEAR     72  71  97 CALM      30.03S FOG
6HR MIN TEMP:  71; 6HR MAX TEMP:  81;

EL DORADO      CLEAR     73  71  93 E3        30.04S
6HR MIN TEMP:  72; 6HR MAX TEMP:  85;

DE QUEEN       CLOUDY    73  72  96 CALM      30.02S FOG
6HR MIN TEMP:  72; 6HR MAX TEMP:  85;

$$

ARZ056-057-069-250700-
SOUTHEAST ARKANSAS

CITY           SKY/WX    TMP DP  RH WIND       PRES   REMARKS
PINE BLUFF     CLEAR     67  62  84 CALM      30.05S
6HR MIN TEMP:  67; 6HR MAX TEMP:  80;

STUTTGART      CLEAR     70  59  68 CALM      30.06S
6HR MIN TEMP:  70; 6HR MAX TEMP:  81;

MONTICELLO     CLEAR     69  63  81 CALM      30.04S
6HR MIN TEMP:  69; 6HR MAX TEMP:  82;


$$





USA.gov is the U.S. government's official web portal to all federal, state and local government web resources and services.